Zurück zum Katalog

CZ-6A DEB

AktivSSO
NORAD 56282·DEBRIS·🇨🇳 China

Gestartet Nov 11, 2022 von Taiyuan Satellite Launch Center

Loading…

Nächste Überflüge (nächste 24 Stunden)

TLE

AktuellSource: Space-Track

Epoche: Sep 14, 2026, 07:01 UTC

1 56282U 22151ADA 26257.29295517  .00002507  00000-0  11332-2 0  9992
2 56282  98.8525 269.8684 0069479  99.0224 261.8824 14.21682921180237

Verfolge CZ-6A DEB in Echtzeit mit AllMySat

Download on the App Store